Location: Unspecified
(39.0670°S, 0.0000°E)
Time: 18:26:23
(UTC+00:00)

Envisat - Pass Details

Date: 29 June 2019
Orbit: 764 x 766 km, 98.1° (Epoch: 19 July)

Event Time Altitude Azimuth Distance (km) Brightness Sun altitude
Exits shadow 20:29:09 14° 287° (WNW) 2,050 5.7 -42.2°
Drops below altitude 10° 20:30:06 10° 296° (WNW) 2,316 6.0 -42.4°
Sets 20:32:50 0° 310° (NW) 3,234 6.7 -42.9°
